WXM80 ListenWXM80 Stop

You find our weather info also at:

UK Metoffice

WeatherCloud

Weather Underground

Northeastern Weather Network

AWEKAS

Citizen Weather Observer Program (CWOP)

HAMweather, WeatherForYou, PWS Weather


Weather Underground History page Text

Daily Summary for March 08, 2018 Units:  English    Metric   Both
« Previous Day
Next Day »
Daily Weekly Monthly Yearly Custom
  High: Low: Average:
Temperature: 45.9 °F 33.7 °F 37.9 °F
Dew Point: 36.1 °F 26.8 °F 31.7 °F
Humidity: 96 % 63 % 79 %
Wind Speed: 11.0 mph 0.2 mph 4.6 mph
Wind Gust: 18.0 mph - -
Wind:- - West
Pressure: 29.46 in 29.37 in -
Precipitation: 0.03 in    
Historical Graphs
 
 
Tabular Data for March 08, 2018
Time Temperature Dew Point Pressure Wind Wind Speed Wind Gust Humidity Rainfall Rate (Hourly)
00:02 33.9 °F 32.9 °F 29.37 in WNW 11.0 mph 15.0 mph 96 % 0.03 in
00:07 33.9 °F 32.9 °F 29.37 in NW 3.8 mph 9.2 mph 96 % 0.03 in
00:12 33.9 °F 32.9 °F 29.37 in WNW 6.1 mph 10.4 mph 96 % 0.02 in
00:17 33.8 °F 32.8 °F 29.37 in WNW 7.9 mph 13.8 mph 96 % 0.02 in
00:22 33.8 °F 32.8 °F 29.37 in West 7.3 mph 11.5 mph 96 % 0.02 in
00:27 33.9 °F 32.9 °F 29.37 in NW 7.2 mph 12.7 mph 96 % 0.01 in
00:32 33.8 °F 32.8 °F 29.38 in WNW 8.3 mph 13.8 mph 96 % 0.02 in
00:37 33.8 °F 32.8 °F 29.38 in NW 7.2 mph 12.7 mph 96 % 0.02 in
00:42 33.8 °F 32.8 °F 29.38 in West 7.0 mph 16.1 mph 96 % 0.02 in
00:47 33.7 °F 32.7 °F 29.39 in WNW 6.2 mph 6.9 mph 96 % 0.02 in
00:52 33.7 °F 32.7 °F 29.38 in West 5.9 mph 11.5 mph 96 % 0.01 in
00:57 33.7 °F 32.7 °F 29.39 in NNW 4.9 mph 11.5 mph 96 % 0.01 in
01:02 33.7 °F 32.7 °F 29.39 in West 5.1 mph 10.4 mph 96 % 0.01 in
01:07 33.7 °F 32.7 °F 29.39 in NW 5.1 mph 9.0 mph 96 % 0.01 in
01:13 33.7 °F 32.7 °F 29.40 in SW 6.6 mph 12.7 mph 96 % 0.01 in
01:18 33.8 °F 32.8 °F 29.40 in WNW 3.0 mph 7.0 mph 96 % 0.01 in
01:23 33.8 °F 32.8 °F 29.40 in WNW 4.7 mph 9.2 mph 96 % 0.01 in
01:28 33.8 °F 32.8 °F 29.40 in West 6.0 mph 9.2 mph 96 % 0.01 in
01:33 33.8 °F 32.8 °F 29.40 in NW 5.8 mph 11.5 mph 96 % 0.00 in
01:38 33.8 °F 32.8 °F 29.40 in WNW 7.0 mph 11.5 mph 96 % 0.00 in
01:43 33.9 °F 32.9 °F 29.40 in WNW 4.0 mph 10.4 mph 96 % 0.00 in
01:48 33.9 °F 32.9 °F 29.40 in NNW 2.2 mph 8.0 mph 96 % 0.01 in
01:53 33.9 °F 32.9 °F 29.40 in WNW 3.9 mph 5.8 mph 96 % 0.01 in
01:58 33.9 °F 32.9 °F 29.39 in NW 7.3 mph 14.0 mph 96 % 0.01 in
02:03 33.9 °F 32.6 °F 29.39 in NW 7.0 mph 14.0 mph 95 % 0.01 in
02:08 34.0 °F 32.7 °F 29.40 in WNW 7.6 mph 15.0 mph 95 % 0.01 in
02:13 34.0 °F 32.7 °F 29.40 in NW 9.6 mph 18.0 mph 95 % 0.01 in
02:18 34.0 °F 32.7 °F 29.39 in WNW 7.2 mph 12.7 mph 95 % 0.01 in
02:23 34.1 °F 32.8 °F 29.39 in NW 6.4 mph 16.1 mph 95 % 0.01 in
02:28 34.1 °F 32.8 °F 29.39 in WNW 6.3 mph 10.4 mph 95 % 0.01 in
02:33 34.1 °F 32.8 °F 29.39 in NNW 7.0 mph 11.5 mph 95 % 0.01 in
02:38 34.2 °F 32.9 °F 29.39 in WNW 7.6 mph 15.0 mph 95 % 0.01 in
02:43 34.2 °F 32.9 °F 29.39 in NNW 5.7 mph 12.7 mph 95 % 0.01 in
02:48 34.2 °F 32.9 °F 29.39 in WNW 6.2 mph 13.8 mph 95 % 0.00 in
02:54 34.2 °F 32.9 °F 29.39 in NW 5.5 mph 6.0 mph 95 % 0.00 in
02:59 34.2 °F 32.9 °F 29.38 in NW 3.1 mph 11.5 mph 95 % 0.00 in
03:04 34.2 °F 32.9 °F 29.39 in NW 9.2 mph 13.8 mph 95 % 0.01 in
03:09 34.2 °F 32.9 °F 29.38 in WNW 5.7 mph 10.4 mph 95 % 0.01 in
03:14 34.3 °F 32.8 °F 29.39 in NW 4.9 mph 11.5 mph 94 % 0.01 in
03:19 34.3 °F 32.8 °F 29.39 in WNW 3.7 mph 9.2 mph 94 % 0.01 in
03:24 34.3 °F 32.8 °F 29.39 in West 4.2 mph 9.2 mph 94 % 0.01 in
03:29 34.3 °F 32.8 °F 29.39 in West 4.9 mph 10.4 mph 94 % 0.01 in
03:34 34.3 °F 32.8 °F 29.39 in NW 6.8 mph 10.4 mph 94 % 0.01 in
03:39 34.3 °F 32.8 °F 29.39 in West 4.8 mph 6.9 mph 94 % 0.01 in
03:44 34.3 °F 32.8 °F 29.38 in NW 6.3 mph 10.4 mph 94 % 0.01 in
03:49 34.3 °F 32.8 °F 29.39 in NNW 6.7 mph 12.7 mph 94 % 0.01 in
03:54 34.3 °F 32.8 °F 29.39 in NW 4.6 mph 10.0 mph 94 % 0.01 in
03:59 34.3 °F 32.8 °F 29.39 in NW 1.7 mph 10.4 mph 94 % 0.01 in
04:04 34.3 °F 32.8 °F 29.39 in NW 6.2 mph 11.5 mph 94 % 0.00 in
04:09 34.3 °F 32.8 °F 29.38 in NNW 5.4 mph 9.2 mph 94 % 0.00 in
04:14 34.3 °F 32.5 °F 29.39 in WNW 3.0 mph 11.5 mph 93 % 0.00 in
04:19 34.3 °F 32.5 °F 29.39 in NW 3.6 mph 6.9 mph 93 % 0.00 in
04:25 34.3 °F 32.5 °F 29.39 in NNW 2.2 mph 8.1 mph 93 % 0.00 in
04:30 34.3 °F 32.5 °F 29.39 in NW 4.1 mph 10.4 mph 93 % 0.00 in
04:35 34.4 °F 32.6 °F 29.39 in WNW 4.7 mph 12.7 mph 93 % 0.00 in
04:40 34.4 °F 32.6 °F 29.39 in West 4.7 mph 8.1 mph 93 % 0.00 in
04:45 34.4 °F 32.6 °F 29.39 in NNW 4.0 mph 8.1 mph 93 % 0.00 in
04:50 34.4 °F 32.6 °F 29.40 in NW 4.2 mph 9.2 mph 93 % 0.00 in
04:55 34.4 °F 32.6 °F 29.39 in NW 3.2 mph 9.2 mph 93 % 0.00 in
05:00 34.4 °F 32.3 °F 29.39 in NW 5.3 mph 10.4 mph 92 % 0.00 in
05:05 34.4 °F 32.3 °F 29.40 in NW 3.3 mph 6.9 mph 92 % 0.00 in
05:10 34.4 °F 32.3 °F 29.40 in NW 5.2 mph 11.5 mph 92 % 0.00 in
05:15 34.4 °F 32.3 °F 29.40 in NW 5.5 mph 10.4 mph 92 % 0.00 in
05:20 34.4 °F 32.3 °F 29.40 in WNW 3.8 mph 6.9 mph 92 % 0.00 in
05:25 34.5 °F 32.4 °F 29.40 in WNW 6.7 mph 12.7 mph 92 % 0.00 in
05:30 34.5 °F 32.4 °F 29.40 in WNW 5.6 mph 9.2 mph 92 % 0.00 in
05:35 34.5 °F 32.4 °F 29.40 in NNW 7.1 mph 10.4 mph 92 % 0.00 in
05:40 34.5 °F 32.4 °F 29.41 in WNW 5.8 mph 9.2 mph 92 % 0.00 in
05:45 34.5 °F 32.4 °F 29.41 in NW 6.0 mph 10.0 mph 92 % 0.00 in
05:50 34.5 °F 32.4 °F 29.41 in WNW 4.7 mph 10.4 mph 92 % 0.00 in
05:55 34.5 °F 32.4 °F 29.41 in NW 3.7 mph 9.2 mph 92 % 0.00 in
06:00 34.5 °F 32.4 °F 29.42 in WNW 5.0 mph 9.0 mph 92 % 0.00 in
06:05 34.5 °F 32.4 °F 29.42 in NW 2.1 mph 5.8 mph 92 % 0.00 in
06:10 34.5 °F 32.4 °F 29.42 in NW 4.4 mph 8.1 mph 92 % 0.00 in
06:16 34.5 °F 32.4 °F 29.42 in WNW 3.0 mph 10.0 mph 92 % 0.00 in
06:21 34.6 °F 32.5 °F 29.42 in WNW 2.0 mph 10.0 mph 92 % 0.00 in
06:26 34.6 °F 32.5 °F 29.42 in WNW 5.0 mph 12.0 mph 92 % 0.00 in
06:31 34.5 °F 32.4 °F 29.43 in WNW 4.7 mph 4.7 mph 92 % 0.00 in
06:36 34.6 °F 32.5 °F 29.43 in WNW 2.0 mph 8.0 mph 92 % 0.00 in
06:41 34.6 °F 32.5 °F 29.43 in WNW 5.0 mph 12.0 mph 92 % 0.00 in
06:46 34.6 °F 32.5 °F 29.43 in WNW 5.0 mph 10.0 mph 92 % 0.00 in
06:51 34.6 °F 32.2 °F 29.44 in WNW 5.0 mph 12.0 mph 91 % 0.00 in
06:56 34.6 °F 32.2 °F 29.43 in WNW 3.0 mph 10.0 mph 91 % 0.00 in
07:01 34.7 °F 32.3 °F 29.44 in West 3.7 mph 7.0 mph 91 % 0.00 in
07:06 34.7 °F 32.3 °F 29.44 in West 3.1 mph 9.2 mph 91 % 0.00 in
07:11 34.7 °F 32.3 °F 29.44 in WNW 3.0 mph 8.1 mph 91 % 0.00 in
07:16 34.8 °F 32.4 °F 29.44 in West 3.7 mph 8.1 mph 91 % 0.00 in
07:21 34.8 °F 32.7 °F 29.44 in West 5.8 mph 10.4 mph 92 % 0.00 in
07:26 34.9 °F 32.5 °F 29.44 in NW 3.5 mph 8.1 mph 91 % 0.00 in
07:31 35.0 °F 32.6 °F 29.44 in NW 0.7 mph 4.6 mph 91 % 0.00 in
07:36 35.0 °F 32.6 °F 29.44 in WNW 6.1 mph 9.2 mph 91 % 0.00 in
07:41 35.1 °F 32.7 °F 29.44 in WSW 4.7 mph 9.2 mph 91 % 0.00 in
07:46 35.2 °F 32.8 °F 29.44 in WNW 1.6 mph 5.8 mph 91 % 0.00 in
07:51 35.4 °F 33.0 °F 29.44 in WSW 3.9 mph 8.1 mph 91 % 0.00 in
07:56 35.7 °F 33.3 °F 29.44 in SW 2.6 mph 4.0 mph 91 % 0.00 in
08:01 36.1 °F 33.5 °F 29.45 in NW 6.2 mph 13.8 mph 90 % 0.00 in
08:06 36.5 °F 33.8 °F 29.45 in NW 6.3 mph 8.1 mph 90 % 0.00 in
08:11 36.8 °F 33.9 °F 29.45 in WNW 4.8 mph 8.1 mph 89 % 0.00 in
08:16 37.1 °F 34.2 °F 29.45 in NW 2.5 mph 9.2 mph 89 % 0.00 in
08:21 37.3 °F 34.1 °F 29.44 in WNW 1.0 mph 6.9 mph 88 % 0.00 in
08:26 37.4 °F 33.9 °F 29.45 in West 6.3 mph 9.2 mph 87 % 0.00 in
08:32 37.5 °F 33.7 °F 29.45 in WNW 2.9 mph 6.9 mph 86 % 0.00 in
08:37 37.6 °F 33.8 °F 29.45 in WNW 3.0 mph 6.9 mph 86 % 0.00 in
08:42 37.7 °F 33.9 °F 29.45 in WNW 4.8 mph 8.1 mph 86 % 0.00 in
08:47 37.9 °F 34.1 °F 29.45 in WNW 4.7 mph 10.4 mph 86 % 0.00 in
08:52 37.9 °F 33.8 °F 29.45 in WNW 5.0 mph 10.4 mph 85 % 0.00 in
08:57 38.0 °F 33.9 °F 29.44 in WNW 2.1 mph 6.9 mph 85 % 0.00 in
09:02 38.0 °F 33.9 °F 29.45 in NW 6.0 mph 9.2 mph 85 % 0.00 in
09:07 38.2 °F 34.4 °F 29.44 in NW 4.4 mph 9.2 mph 86 % 0.00 in
09:12 38.4 °F 34.3 °F 29.44 in NW 5.6 mph 11.5 mph 85 % 0.00 in
09:17 38.5 °F 34.4 °F 29.44 in West 5.1 mph 6.0 mph 85 % 0.00 in
09:22 38.8 °F 34.4 °F 29.44 in NW 1.0 mph 8.1 mph 84 % 0.00 in
09:27 39.2 °F 34.8 °F 29.44 in West 0.7 mph 4.0 mph 84 % 0.00 in
09:32 39.6 °F 34.9 °F 29.44 in NW 0.7 mph 10.4 mph 83 % 0.00 in
09:37 40.2 °F 35.8 °F 29.44 in WNW 4.8 mph 9.0 mph 84 % 0.00 in
09:42 40.5 °F 35.4 °F 29.45 in WNW 2.4 mph 8.1 mph 82 % 0.00 in
09:47 40.7 °F 35.3 °F 29.45 in WNW 1.9 mph 5.8 mph 81 % 0.00 in
09:52 40.8 °F 35.1 °F 29.44 in NW 2.7 mph 4.6 mph 80 % 0.00 in
09:57 40.9 °F 34.9 °F 29.45 in NW 4.5 mph 8.1 mph 79 % 0.00 in
10:02 41.0 °F 34.7 °F 29.44 in NW 4.0 mph 6.9 mph 78 % 0.00 in
10:07 41.1 °F 34.8 °F 29.44 in SW 3.7 mph 6.9 mph 78 % 0.00 in
10:13 41.4 °F 35.1 °F 29.44 in NW 2.5 mph 8.0 mph 78 % 0.00 in
10:18 41.5 °F 34.5 °F 29.44 in West 5.2 mph 11.5 mph 76 % 0.00 in
10:23 41.6 °F 34.9 °F 29.44 in WSW 5.0 mph 7.0 mph 77 % 0.00 in
10:28 42.0 °F 35.0 °F 29.44 in WNW 0.2 mph 8.1 mph 76 % 0.00 in
10:33 42.3 °F 34.9 °F 29.44 in West 5.6 mph 11.5 mph 75 % 0.00 in
10:38 42.7 °F 35.0 °F 29.44 in WNW 3.7 mph 9.2 mph 74 % 0.00 in
10:43 42.9 °F 34.8 °F 29.43 in WSW 5.0 mph 8.0 mph 73 % 0.00 in
10:48 43.2 °F 34.8 °F 29.43 in NNW 5.1 mph 10.0 mph 72 % 0.00 in
10:53 43.3 °F 34.9 °F 29.43 in WNW 4.2 mph 8.1 mph 72 % 0.00 in
10:58 43.4 °F 34.6 °F 29.43 in West 5.9 mph 10.4 mph 71 % 0.00 in
11:03 43.8 °F 35.0 °F 29.43 in WSW 3.5 mph 4.6 mph 71 % 0.00 in
11:08 44.2 °F 35.7 °F 29.43 in WNW 2.2 mph 4.0 mph 72 % 0.00 in
11:13 44.2 °F 35.0 °F 29.43 in West 4.1 mph 9.0 mph 70 % 0.00 in
11:18 44.3 °F 35.1 °F 29.43 in WSW 4.3 mph 9.0 mph 70 % 0.00 in
11:23 44.7 °F 35.5 °F 29.43 in WSW 4.3 mph 6.0 mph 70 % 0.00 in
11:28 45.1 °F 35.9 °F 29.43 in SW 7.3 mph 10.4 mph 70 % 0.00 in
11:33 45.2 °F 36.0 °F 29.43 in WSW 2.1 mph 3.5 mph 70 % 0.00 in
11:38 45.4 °F 35.8 °F 29.42 in West 1.4 mph 10.0 mph 69 % 0.00 in
11:43 45.5 °F 35.9 °F 29.42 in WSW 5.0 mph 5.8 mph 69 % 0.00 in
11:49 45.4 °F 35.8 °F 29.42 in West 2.4 mph 5.8 mph 69 % 0.00 in
11:54 45.0 °F 35.4 °F 29.42 in WNW 3.4 mph 6.9 mph 69 % 0.00 in
11:59 44.6 °F 34.7 °F 29.42 in West 7.1 mph 10.4 mph 68 % 0.00 in
12:04 44.6 °F 35.1 °F 29.42 in WNW 3.4 mph 8.1 mph 69 % 0.00 in
12:09 44.8 °F 35.2 °F 29.41 in WSW 2.4 mph 10.4 mph 69 % 0.00 in
12:14 45.1 °F 35.9 °F 29.41 in WSW 5.5 mph 10.4 mph 70 % 0.00 in
12:19 45.3 °F 36.1 °F 29.41 in West 7.3 mph 11.5 mph 70 % 0.00 in
12:24 45.4 °F 35.8 °F 29.41 in West 5.1 mph 8.1 mph 69 % 0.00 in
12:29 45.6 °F 36.0 °F 29.41 in West 3.9 mph 8.0 mph 69 % 0.00 in
12:34 45.5 °F 35.5 °F 29.41 in SW 7.0 mph 11.5 mph 68 % 0.00 in
12:39 44.8 °F 34.5 °F 29.40 in West 8.7 mph 11.5 mph 67 % 0.00 in
12:44 44.4 °F 34.9 °F 29.40 in WNW 6.7 mph 10.0 mph 69 % 0.00 in
12:49 44.6 °F 35.8 °F 29.40 in NW 2.5 mph 6.0 mph 71 % 0.00 in
12:54 44.9 °F 35.7 °F 29.40 in WNW 2.7 mph 3.5 mph 70 % 0.00 in
12:59 44.9 °F 35.0 °F 29.40 in WSW 5.4 mph 9.2 mph 68 % 0.00 in
13:04 45.2 °F 35.6 °F 29.39 in West 2.2 mph 4.6 mph 69 % 0.00 in
13:09 45.7 °F 35.7 °F 29.39 in WNW 6.6 mph 11.5 mph 68 % 0.00 in
13:14 45.8 °F 35.8 °F 29.39 in West 6.1 mph 9.2 mph 68 % 0.00 in
13:19 45.9 °F 35.2 °F 29.39 in West 1.3 mph 3.5 mph 66 % 0.00 in
13:24 45.6 °F 33.7 °F 29.39 in WNW 5.6 mph 9.2 mph 63 % 0.00 in
13:29 45.2 °F 34.1 °F 29.39 in WNW 6.8 mph 7.0 mph 65 % 0.00 in
13:35 44.6 °F 33.9 °F 29.40 in West 8.0 mph 11.5 mph 66 % 0.00 in
13:40 44.0 °F 33.7 °F 29.39 in West 8.7 mph 14.0 mph 67 % 0.00 in
13:45 43.4 °F 33.9 °F 29.39 in SW 7.0 mph 11.5 mph 69 % 0.00 in
13:50 43.0 °F 33.9 °F 29.39 in WNW 6.6 mph 11.5 mph 70 % 0.00 in
13:55 42.8 °F 33.7 °F 29.39 in SSW 4.4 mph 10.4 mph 70 % 0.00 in
14:00 42.5 °F 33.8 °F 29.39 in West 3.4 mph 8.1 mph 71 % 0.00 in
14:05 42.3 °F 33.6 °F 29.39 in SW 3.4 mph 5.8 mph 71 % 0.00 in
14:10 42.2 °F 33.8 °F 29.39 in WSW 2.7 mph 4.6 mph 72 % 0.00 in
14:15 42.1 °F 33.4 °F 29.39 in WNW 7.7 mph 11.5 mph 71 % 0.00 in
14:20 41.8 °F 32.7 °F 29.39 in WNW 7.5 mph 11.5 mph 70 % 0.00 in
14:25 41.6 °F 32.5 °F 29.39 in WSW 5.4 mph 8.1 mph 70 % 0.00 in
14:30 41.5 °F 32.4 °F 29.39 in West 5.3 mph 11.5 mph 70 % 0.00 in
14:35 41.6 °F 32.5 °F 29.39 in WNW 2.6 mph 12.7 mph 70 % 0.00 in
14:40 41.8 °F 32.4 °F 29.39 in WSW 4.0 mph 10.4 mph 69 % 0.00 in
14:45 41.7 °F 32.3 °F 29.39 in West 3.3 mph 11.5 mph 69 % 0.00 in
14:50 41.7 °F 33.0 °F 29.39 in SW 1.2 mph 6.0 mph 71 % 0.00 in
14:55 41.6 °F 32.5 °F 29.40 in WNW 4.6 mph 6.9 mph 70 % 0.00 in
15:01 41.5 °F 32.4 °F 29.40 in West 5.3 mph 11.5 mph 70 % 0.00 in
15:06 41.4 °F 32.3 °F 29.40 in SW 3.7 mph 6.9 mph 70 % 0.00 in
15:11 41.1 °F 32.1 °F 29.40 in WSW 5.6 mph 11.5 mph 70 % 0.00 in
15:16 41.0 °F 32.3 °F 29.39 in SW 1.7 mph 3.5 mph 71 % 0.00 in
15:21 40.9 °F 32.2 °F 29.40 in WSW 3.5 mph 11.5 mph 71 % 0.00 in
15:26 40.9 °F 32.2 °F 29.40 in WSW 5.6 mph 11.5 mph 71 % 0.00 in
15:31 40.8 °F 31.8 °F 29.40 in West 6.6 mph 11.5 mph 70 % 0.00 in
15:36 40.7 °F 31.7 °F 29.40 in WSW 6.9 mph 13.8 mph 70 % 0.00 in
15:41 40.6 °F 31.6 °F 29.40 in West 6.8 mph 9.2 mph 70 % 0.00 in
15:46 40.3 °F 31.3 °F 29.40 in West 4.3 mph 9.2 mph 70 % 0.00 in
15:51 40.2 °F 31.2 °F 29.40 in WSW 3.7 mph 9.2 mph 70 % 0.00 in
15:56 40.0 °F 31.0 °F 29.40 in WSW 3.1 mph 7.0 mph 70 % 0.00 in
16:01 40.0 °F 30.6 °F 29.40 in WSW 3.9 mph 8.1 mph 69 % 0.00 in
16:06 39.9 °F 30.5 °F 29.41 in WSW 5.6 mph 10.4 mph 69 % 0.00 in
16:11 39.8 °F 30.5 °F 29.41 in WSW 4.9 mph 5.8 mph 69 % 0.00 in
16:16 39.8 °F 30.5 °F 29.40 in WSW 2.6 mph 6.9 mph 69 % 0.00 in
16:22 39.8 °F 30.5 °F 29.41 in WSW 3.7 mph 8.0 mph 69 % 0.00 in
16:27 39.8 °F 30.1 °F 29.41 in West 4.7 mph 8.1 mph 68 % 0.00 in
16:32 39.7 °F 29.6 °F 29.41 in WSW 4.8 mph 7.0 mph 67 % 0.00 in
16:37 39.7 °F 29.6 °F 29.41 in West 6.4 mph 10.4 mph 67 % 0.00 in
16:42 39.6 °F 29.5 °F 29.41 in WSW 5.0 mph 9.2 mph 67 % 0.00 in
16:47 39.6 °F 29.9 °F 29.41 in WNW 4.1 mph 9.2 mph 68 % 0.00 in
16:52 39.6 °F 29.9 °F 29.41 in NW 3.7 mph 6.0 mph 68 % 0.00 in
16:57 39.5 °F 29.8 °F 29.41 in WNW 2.4 mph 8.1 mph 68 % 0.00 in
17:02 39.5 °F 30.2 °F 29.42 in WNW 2.0 mph 4.6 mph 69 % 0.00 in
17:07 39.4 °F 30.1 °F 29.42 in SW 5.8 mph 10.4 mph 69 % 0.00 in
17:12 39.3 °F 30.0 °F 29.42 in West 6.4 mph 11.5 mph 69 % 0.00 in
17:17 39.3 °F 30.0 °F 29.42 in WNW 3.9 mph 7.0 mph 69 % 0.00 in
17:22 39.2 °F 29.9 °F 29.42 in WNW 3.8 mph 4.6 mph 69 % 0.00 in
17:27 39.1 °F 30.1 °F 29.42 in West 3.7 mph 9.2 mph 70 % 0.00 in
17:32 39.0 °F 29.7 °F 29.42 in WNW 4.2 mph 6.9 mph 69 % 0.00 in
17:37 38.9 °F 29.6 °F 29.42 in West 5.9 mph 6.9 mph 69 % 0.00 in
17:42 38.9 °F 29.2 °F 29.42 in SW 2.9 mph 7.0 mph 68 % 0.00 in
17:47 38.8 °F 29.1 °F 29.42 in West 6.3 mph 11.5 mph 68 % 0.00 in
17:52 38.7 °F 29.0 °F 29.42 in WSW 6.8 mph 11.5 mph 68 % 0.00 in
17:57 38.7 °F 29.0 °F 29.43 in WSW 4.5 mph 10.4 mph 68 % 0.00 in
18:03 38.6 °F 28.9 °F 29.42 in WSW 4.5 mph 8.1 mph 68 % 0.00 in
18:08 38.6 °F 28.6 °F 29.43 in West 5.7 mph 5.8 mph 67 % 0.00 in
18:13 38.6 °F 28.9 °F 29.43 in WSW 1.7 mph 3.5 mph 68 % 0.00 in
18:18 38.5 °F 28.9 °F 29.44 in NW 3.8 mph 6.9 mph 68 % 0.00 in
18:23 38.5 °F 28.5 °F 29.43 in WSW 4.9 mph 10.4 mph 67 % 0.00 in
18:28 38.4 °F 28.0 °F 29.44 in West 4.3 mph 9.0 mph 66 % 0.00 in
18:33 38.4 °F 27.3 °F 29.44 in WSW 6.5 mph 10.4 mph 64 % 0.00 in
18:38 38.3 °F 27.2 °F 29.44 in WSW 4.2 mph 10.4 mph 64 % 0.00 in
18:43 38.3 °F 27.2 °F 29.44 in West 4.2 mph 8.1 mph 64 % 0.00 in
18:48 38.3 °F 27.2 °F 29.44 in WSW 6.7 mph 10.4 mph 64 % 0.00 in
18:53 38.2 °F 27.1 °F 29.44 in WSW 0.4 mph 3.5 mph 64 % 0.00 in
18:58 38.2 °F 27.1 °F 29.44 in WNW 2.9 mph 5.8 mph 64 % 0.00 in
19:03 38.2 °F 27.1 °F 29.44 in WNW 3.7 mph 5.0 mph 64 % 0.00 in
19:08 38.1 °F 27.0 °F 29.45 in WSW 3.5 mph 4.6 mph 64 % 0.00 in
19:13 38.0 °F 26.9 °F 29.45 in West 3.3 mph 11.5 mph 64 % 0.00 in
19:19 38.0 °F 26.9 °F 29.45 in West 6.7 mph 11.5 mph 64 % 0.00 in
19:24 38.0 °F 26.9 °F 29.45 in NW 3.6 mph 8.0 mph 64 % 0.00 in
19:29 38.0 °F 27.3 °F 29.45 in West 6.1 mph 10.0 mph 65 % 0.00 in
19:34 37.9 °F 26.8 °F 29.45 in West 3.8 mph 10.4 mph 64 % 0.00 in
19:39 37.9 °F 27.2 °F 29.45 in WSW 4.4 mph 8.1 mph 65 % 0.00 in
19:44 37.8 °F 27.1 °F 29.45 in West 3.8 mph 6.0 mph 65 % 0.00 in
19:49 37.7 °F 27.4 °F 29.45 in WNW 5.0 mph 8.1 mph 66 % 0.00 in
19:54 37.7 °F 27.4 °F 29.45 in West 1.8 mph 3.5 mph 66 % 0.00 in
19:59 37.6 °F 27.3 °F 29.45 in WSW 4.2 mph 5.8 mph 66 % 0.00 in
20:04 37.5 °F 27.2 °F 29.45 in WNW 3.8 mph 8.0 mph 66 % 0.00 in
20:09 37.5 °F 27.2 °F 29.46 in WNW 1.8 mph 6.9 mph 66 % 0.00 in
20:14 37.4 °F 27.1 °F 29.45 in West 5.7 mph 9.2 mph 66 % 0.00 in
20:19 37.3 °F 27.0 °F 29.45 in WNW 6.0 mph 10.4 mph 66 % 0.00 in
20:24 37.2 °F 27.2 °F 29.46 in WNW 3.6 mph 6.0 mph 67 % 0.00 in
20:29 37.2 °F 27.6 °F 29.45 in WSW 2.1 mph 5.0 mph 68 % 0.00 in
20:34 37.1 °F 28.2 °F 29.45 in WSW 3.7 mph 4.6 mph 70 % 0.00 in
20:39 37.0 °F 28.1 °F 29.45 in West 2.4 mph 5.8 mph 70 % 0.00 in
20:44 36.9 °F 28.0 °F 29.45 in WSW 2.5 mph 6.0 mph 70 % 0.00 in
20:50 36.8 °F 28.3 °F 29.45 in WNW 4.4 mph 5.8 mph 71 % 0.00 in
20:55 36.7 °F 28.2 °F 29.45 in West 1.1 mph 5.8 mph 71 % 0.00 in
21:00 36.6 °F 27.7 °F 29.45 in WSW 2.5 mph 5.8 mph 70 % 0.00 in
21:05 36.5 °F 27.6 °F 29.45 in West 2.9 mph 9.2 mph 70 % 0.00 in
21:10 36.5 °F 27.6 °F 29.46 in West 1.9 mph 6.0 mph 70 % 0.00 in
21:15 36.4 °F 27.5 °F 29.45 in West 5.1 mph 8.1 mph 70 % 0.00 in
21:20 36.4 °F 27.9 °F 29.45 in SW 6.2 mph 8.1 mph 71 % 0.00 in
21:25 36.3 °F 28.1 °F 29.45 in SW 4.1 mph 9.2 mph 72 % 0.00 in
21:30 36.3 °F 28.5 °F 29.45 in West 5.4 mph 9.2 mph 73 % 0.00 in
21:35 36.3 °F 28.5 °F 29.45 in WSW 1.9 mph 5.0 mph 73 % 0.00 in
21:40 36.3 °F 28.8 °F 29.44 in West 3.7 mph 8.1 mph 74 % 0.00 in
21:45 36.3 °F 28.8 °F 29.45 in WSW 4.1 mph 6.9 mph 74 % 0.00 in
21:50 36.3 °F 28.8 °F 29.45 in West 6.6 mph 10.4 mph 74 % 0.00 in
21:55 36.3 °F 28.8 °F 29.44 in SSW 5.8 mph 8.1 mph 74 % 0.00 in
22:00 36.2 °F 28.7 °F 29.44 in WNW 6.0 mph 10.4 mph 74 % 0.00 in
22:05 36.2 °F 28.7 °F 29.44 in WNW 5.6 mph 9.2 mph 74 % 0.00 in
22:10 36.1 °F 28.6 °F 29.44 in WSW 5.0 mph 12.0 mph 74 % 0.00 in
22:15 36.1 °F 28.3 °F 29.44 in WSW 2.0 mph 9.0 mph 73 % 0.00 in
22:16 36.2 °F 28.4 °F 29.44 in WNW 5.9 mph 9.2 mph 73 % 0.00 in
22:21 36.1 °F 28.3 °F 29.44 in West 1.0 mph 5.8 mph 73 % 0.00 in
22:26 36.1 °F 28.3 °F 29.44 in WNW 5.2 mph 11.5 mph 73 % 0.00 in
22:31 36.1 °F 27.9 °F 29.44 in WNW 5.3 mph 11.5 mph 72 % 0.00 in
22:37 36.1 °F 27.6 °F 29.43 in WSW 4.8 mph 10.4 mph 71 % 0.00 in
22:42 36.0 °F 27.8 °F 29.43 in West 8.0 mph 13.8 mph 72 % 0.00 in
22:47 36.0 °F 27.5 °F 29.43 in WSW 3.2 mph 9.2 mph 71 % 0.00 in
22:52 36.0 °F 27.5 °F 29.43 in WSW 6.1 mph 10.4 mph 71 % 0.00 in
22:57 35.9 °F 27.4 °F 29.43 in WNW 3.2 mph 8.1 mph 71 % 0.00 in
23:02 35.9 °F 27.7 °F 29.43 in WSW 6.8 mph 11.5 mph 72 % 0.00 in
23:07 35.9 °F 27.7 °F 29.42 in West 7.1 mph 9.2 mph 72 % 0.00 in
23:12 35.8 °F 27.7 °F 29.42 in West 1.7 mph 9.0 mph 72 % 0.00 in
23:17 35.7 °F 27.6 °F 29.42 in West 3.3 mph 10.4 mph 72 % 0.00 in
23:22 35.7 °F 27.9 °F 29.42 in West 2.5 mph 5.8 mph 73 % 0.00 in
23:27 35.6 °F 27.8 °F 29.42 in WSW 3.7 mph 8.1 mph 73 % 0.00 in
23:32 35.5 °F 27.7 °F 29.42 in NW 4.4 mph 6.0 mph 73 % 0.00 in
23:37 35.5 °F 27.7 °F 29.42 in West 7.1 mph 10.4 mph 73 % 0.00 in
23:42 35.5 °F 27.7 °F 29.42 in West 3.3 mph 4.6 mph 73 % 0.00 in
23:47 35.4 °F 27.6 °F 29.42 in WSW 3.3 mph 6.9 mph 73 % 0.00 in
23:52 35.3 °F 27.5 °F 29.42 in WSW 2.6 mph 5.8 mph 73 % 0.00 in
23:57 35.3 °F 27.8 °F 29.42 in WNW 3.0 mph 4.6 mph 74 % 0.00 in
Crab Meadow Weather
Compliments of Weather Underground - 3 mb

Script developed by  Jim McMurry - jmcmurry@mwt.net Adapted for the template by  Wim van der Kuil - Leuven-Template.eu

Astronomy: It takes Saturn exactly 29.46 years to travel once around the Sun.